Change the Weather History Date:

Sunday, April 13, 2014

  Actual Average Record
Temperature  
Mean Temperature 42 °F -  
Max Temperature 44 °F 42 °F 54 °F (1983)
Min Temperature 39 °F 28 °F 10 °F (1983)
Degree Days  
Heating Degree Days 24    
Moisture  
Dew Point 34 °F    
Average Humidity 78    
Maximum Humidity 93    
Minimum Humidity 60    
Precipitation  
Precipitation 0.21 in - - ()
Sea Level Pressure  
Sea Level Pressure 29.44 in    
Wind  
Wind Speed 11 mph (SSW)    
Max Wind Speed 24 mph    
Max Gust Speed 29 mph    
Visibility 10 miles    
Events Rain    
Averages and records for this station are not official NWS values.
T = Trace of Precipitation, MM = Missing Value Source: NWS Daily Summary

Daily Weather History Graph

Daily Weather History Graph

Search for Another Location

Airport or City:

Trip Planner

Search our weather history database for the weather conditions in past years. The results will help you decide how hot, cold, wet, or windy it might be!

Date:

Astronomy

Apr. 13, 2014 Rise Set
Actual Time 8:09 AM AKDT 10:04 PM AKDT
Civil Twilight 7:32 AM AKDT 10:42 PM AKDT
Nautical Twilight 6:45 AM AKDT 11:29 PM AKDT
Astronomical Twilight 5:51 AM AKDT 12:24 AM AKDT
Moon 8:46 PM AKDT (4/13) 7:28 AM AKDT (4/13)
Length of Visible Light 15h 10m
Length of Day
13h 55m
Waxing Gibbous, 98% of the Moon is Illuminated
Apr 13
Waxing Gibbous
Apr 14
Full
Apr 21
Last Quarter
Apr 28
New
May 6
First Quarter

Hourly Weather History & Observations

Time (AKDT) Temp. Windchill Dew Point Humidity Pressure Visibility Wind Dir Wind Speed Gust Speed Precip Events Conditions
12:33 AM 39.2 °F 35.0 °F 30.2 °F 70% 29.55 in 10.0 mi SSE 5.8 mph - N/A   Overcast
12:56 AM 39.0 °F 32.3 °F 32.0 °F 76% 29.55 in 10.0 mi SSE 10.4 mph - 0.00 in Rain Light Rain
1:56 AM 39.9 °F 32.1 °F 30.9 °F 70% 29.53 in 10.0 mi SSE 13.8 mph - 0.00 in   Overcast
2:56 AM 39.0 °F 29.3 °F 33.1 °F 79% 29.50 in 10.0 mi SE 19.6 mph - 0.00 in Rain Light Rain
3:56 AM 39.0 °F 28.8 °F 34.0 °F 82% 29.48 in 10.0 mi SE 21.9 mph 28.8 mph 0.00 in Rain Light Rain
4:56 AM 39.0 °F 30.6 °F 34.0 °F 82% 29.45 in 10.0 mi SE 15.0 mph 20.7 mph 0.02 in Rain Light Rain
5:56 AM 39.9 °F 32.5 °F 35.1 °F 83% 29.41 in 10.0 mi SE 12.7 mph - 0.02 in Rain Light Rain
6:42 AM 41.0 °F 32.5 °F 35.6 °F 81% 29.37 in 7.0 mi SE 17.3 mph - 0.00 in Rain Light Rain
6:56 AM 41.0 °F 32.5 °F 36.0 °F 82% 29.39 in 7.0 mi SE 17.3 mph 21.9 mph 0.00 in Rain Light Rain
7:39 AM 41.0 °F 34.7 °F 35.6 °F 81% 29.35 in 7.0 mi ESE 10.4 mph 18.4 mph 0.00 in Rain Light Rain
7:47 AM 41.0 °F 33.1 °F 35.6 °F 81% 29.34 in 9.0 mi ESE 15.0 mph - 0.00 in Rain Light Rain
7:53 AM 41.0 °F 34.3 °F 35.6 °F 81% 29.34 in 9.0 mi ESE 11.5 mph - 0.00 in Rain Light Rain
7:56 AM 41.0 °F 35.2 °F 36.0 °F 82% 29.36 in 9.0 mi ESE 9.2 mph - 0.00 in Rain Light Rain
8:03 AM 41.0 °F 34.7 °F 35.6 °F 81% 29.34 in 9.0 mi SE 10.4 mph 17.3 mph 0.00 in Rain Light Rain
8:56 AM 41.0 °F 35.2 °F 37.0 °F 86% 29.34 in 9.0 mi ESE 9.2 mph - 0.00 in Rain Light Rain
8:58 AM 41.0 °F 37.1 °F 37.4 °F 87% 29.32 in 10.0 mi Variable 5.8 mph - 0.00 in Rain Light Rain
8:59 AM 41.0 °F 37.1 °F 37.4 °F 87% 29.32 in 10.0 mi Variable 5.8 mph - 0.00 in   Overcast
9:32 AM 41.0 °F 37.1 °F 37.4 °F 87% 29.32 in 10.0 mi South 5.8 mph - 0.00 in   Overcast
9:56 AM 41.0 °F 37.1 °F 37.0 °F 86% 29.33 in 10.0 mi South 5.8 mph - 0.00 in   Overcast
10:00 AM 41.0 °F 37.1 °F 37.4 °F 87% 29.31 in 10.0 mi SSE 5.8 mph - N/A   Overcast
10:56 AM 39.9 °F 37.8 °F 37.0 °F 89% 29.33 in 9.0 mi WSW 3.5 mph - 0.02 in Rain Light Rain
11:18 AM 39.2 °F 37.0 °F 37.4 °F 93% 29.32 in 8.0 mi SW 3.5 mph - 0.03 in Rain Light Rain
11:56 AM 39.9 °F 37.8 °F 37.0 °F 89% 29.34 in 8.0 mi WSW 3.5 mph - 0.08 in Rain Light Rain
12:56 PM 39.9 °F 37.8 °F 37.0 °F 89% 29.36 in 8.0 mi West 3.5 mph - 0.06 in Rain Light Rain
1:56 PM 43.0 °F - 37.0 °F 80% 29.37 in 10.0 mi Calm Calm - 0.01 in   Overcast
2:08 PM 42.8 °F 41.1 °F 37.4 °F 81% 29.36 in 10.0 mi West 3.5 mph - 0.00 in Rain Light Rain
2:45 PM 44.6 °F 38.4 °F 35.6 °F 71% 29.37 in 10.0 mi WSW 12.7 mph 20.7 mph 0.00 in   Overcast
2:50 PM 44.6 °F 38.4 °F 35.6 °F 71% 29.37 in 10.0 mi WSW 12.7 mph 20.7 mph 0.00 in   Overcast
2:56 PM 43.0 °F 34.5 °F 35.1 °F 74% 29.39 in 10.0 mi WSW 19.6 mph 25.3 mph 0.00 in   Overcast
2:57 PM 42.8 °F 34.3 °F 35.6 °F 76% 29.37 in 10.0 mi WSW 19.6 mph 25.3 mph N/A   Overcast
3:56 PM 43.0 °F 36.0 °F 34.0 °F 71% 29.43 in 10.0 mi WSW 13.8 mph - N/A   Overcast
4:34 PM 42.8 °F 35.4 °F 33.8 °F 70% 29.44 in 10.0 mi WSW 15.0 mph 23.0 mph N/A   Mostly Cloudy
4:56 PM 44.1 °F 37.1 °F 34.0 °F 68% 29.48 in 10.0 mi WSW 15.0 mph 19.6 mph N/A   Mostly Cloudy
5:08 PM 42.8 °F 36.6 °F 33.8 °F 70% 29.46 in 10.0 mi West 11.5 mph 19.6 mph N/A   Mostly Cloudy
5:56 PM 42.1 °F 34.2 °F 34.0 °F 73% 29.52 in 10.0 mi West 16.1 mph - N/A   Mostly Cloudy
6:08 PM 42.8 °F 34.8 °F 33.8 °F 70% 29.51 in 10.0 mi West 17.3 mph - N/A   Overcast
6:33 PM 41.0 °F 31.6 °F 33.8 °F 76% 29.52 in 10.0 mi WNW 20.7 mph 26.5 mph N/A   Mostly Cloudy
6:56 PM 39.9 °F 29.5 °F 33.1 °F 77% 29.56 in 10.0 mi WNW 24.2 mph - N/A   Clear
7:56 PM 39.9 °F 30.0 °F 30.9 °F 70% 29.58 in 10.0 mi WNW 21.9 mph - N/A   Clear
8:56 PM 41.0 °F 34.7 °F 28.9 °F 62% 29.61 in 10.0 mi West 10.4 mph - N/A   Clear
9:39 PM 39.2 °F 33.0 °F 28.4 °F 65% 29.61 in 10.0 mi SSW 9.2 mph - N/A   Scattered Clouds
9:56 PM 39.9 °F 35.1 °F 27.0 °F 60% 29.64 in 10.0 mi West 6.9 mph - N/A   Clear
10:56 PM 39.0 °F 31.4 °F 28.9 °F 67% 29.67 in 10.0 mi SSW 12.7 mph - N/A   Clear
11:56 PM 39.0 °F 32.3 °F 28.9 °F 67% 29.71 in 10.0 mi SSW 10.4 mph - N/A   Clear